Dubai, UAE

7:48 PM +04 on April 19, 2018 (GMT +0400)
Dubai

Weather History for 41194 - May, 2013

Change the Weather History Date:

Thursday, May 2, 2013

  Actual Average Record
Temperature  
Mean Temperature 86 °F -  
Max Temperature 92 °F 97 °F - ()
Min Temperature 79 °F 76 °F - ()
Cooling Degree Days 20    
Growing Degree Days 36 (Base 50)    
Moisture  
Dew Point 67 °F    
Average Humidity 56    
Maximum Humidity 74    
Minimum Humidity 29    
Precipitation  
Precipitation 0.00 in 0.00 in - ()
Sea Level Pressure  
Sea Level Pressure 29.80 in    
Wind  
Wind Speed 6 mph ()    
Max Wind Speed 16 mph    
Max Gust Speed -    
Visibility 6.0 miles    
Events      
T = Trace of Precipitation, MM = Missing Value Source: Averaged Metar Reports

Daily Weather History Graph

Daily Weather History Graph

Search for Another Location

Airport or City:

Astronomy

May. 02, 2013 Rise Set
Actual Time 5:41 AM +04 6:49 PM +04
Civil Twilight 5:17 AM +04 7:13 PM +04
Nautical Twilight 4:49 AM +04 7:42 PM +04
Astronomical Twilight 4:19 AM +04 8:11 PM +04
Moon 12:25 AM +04 (5/2) 11:57 AM +04 (5/2)
Length of Visible Light 13h 55m
Length of Day
13h 07m
Waning Gibbous, 52% of the Moon is Illuminated
May 2
Waning Gibbous
May 2
Last Quarter
May 10
New
May 18
First Quarter
May 25
Full

Hourly Weather History & Observations

Time (+04) Temp. Heat Index Dew Point Humidity Pressure Visibility Wind Dir Wind Speed Gust Speed Precip Events Conditions
12:00 AM 82.4 °F 84.6 °F 66.2 °F 58% 29.80 in - East 5.8 mph - N/A   Clear
1:00 AM 83 °F - 66 °F 46% 29.80 in 6 mi 2.3 mph - -   Partly Cloudy
1:00 AM 82.4 °F 84.6 °F 66.2 °F 58% 29.80 in - Variable 2.3 mph - N/A   Clear
2:00 AM 82.4 °F 84.6 °F 66.2 °F 58% 29.77 in - Variable 3.5 mph - N/A   Clear
3:00 AM 82.4 °F 83.9 °F 64.4 °F 54% 29.74 in - East 3.5 mph - N/A   Clear
4:00 AM 83 °F - 64 °F 42% 29.75 in 6 mi ENE 3.5 mph - -  
4:00 AM 82.4 °F 83.9 °F 64.4 °F 54% 29.74 in - ENE 3.5 mph - N/A   Clear
5:00 AM 80.6 °F 83.2 °F 68.0 °F 65% 29.74 in - NNW 4.6 mph - N/A   Clear
6:00 AM 80.6 °F 82.3 °F 64.4 °F 58% 29.77 in - East 5.8 mph - N/A   Clear
7:00 AM 81 °F - 69 °F 60% 29.81 in 6 mi East 4.6 mph - -   Scattered Clouds
7:00 AM 80.6 °F 83.9 °F 69.8 °F 70% 29.80 in - East 4.6 mph - N/A   Clear
8:00 AM 84.2 °F 87.3 °F 68.0 °F 58% 29.80 in - ESE 3.5 mph - N/A   Clear
9:00 AM 86.0 °F 88.2 °F 66.2 °F 51% 29.83 in - South 9.2 mph - N/A   Clear
10:00 AM 89 °F - 61 °F 29% 29.85 in 6 mi SSW 8.1 mph - -   Mostly Cloudy
10:00 AM 89.6 °F 89.5 °F 60.8 °F 38% 29.83 in - SSW 8.1 mph - N/A   Clear
11:00 AM 91.4 °F 94.0 °F 66.2 °F 43% 29.83 in - SW 9.2 mph - N/A   Clear
12:00 PM 91.4 °F 95.4 °F 68.0 °F 46% 29.83 in - WNW 13.8 mph - N/A   Clear
1:00 PM 89 °F - 67 °F 38% 29.84 in 6 mi West 13.8 mph - -   Mostly Cloudy
1:00 PM 89.6 °F 92.2 °F 66.2 °F 46% 29.83 in - West 13.8 mph - N/A   Clear
2:00 PM 87.8 °F 91.4 °F 68.0 °F 52% 29.80 in - West 16.1 mph - N/A   Clear
3:00 PM 86.0 °F 89.4 °F 68.0 °F 55% 29.80 in - West 16.1 mph - N/A   Clear
4:00 PM 85 °F - 69 °F 50% 29.81 in 6 mi West 15.0 mph - -   Mostly Cloudy
4:00 PM 86.0 °F 90.4 °F 69.8 °F 58% 29.80 in - West 15.0 mph - N/A   Clear
5:00 PM 84.2 °F 88.4 °F 69.8 °F 62% 29.80 in 5.6 mi WNW 16.1 mph - N/A   Unknown
6:00 PM 82.4 °F 86.3 °F 69.8 °F 66% 29.77 in - NNW 13.8 mph - N/A   Clear
7:00 PM 81 °F - 71 °F 64% 29.79 in 6 mi North 11.5 mph - -   Mostly Cloudy
7:00 PM 80.6 °F 84.6 °F 71.6 °F 74% 29.77 in - North 11.5 mph - N/A   Clear
8:00 PM 80.6 °F 83.9 °F 69.8 °F 70% 29.80 in - NNE 6.9 mph - N/A   Clear
9:00 PM 80.6 °F 83.9 °F 69.8 °F 70% 29.80 in - NE 5.8 mph - N/A   Clear
10:00 PM 82 °F - 70 °F 59% 29.83 in 6 mi ENE 4.6 mph - -  
10:00 PM 82.4 °F 86.3 °F 69.8 °F 66% 29.83 in - ENE 4.6 mph - N/A   Clear
11:00 PM 80.6 °F 83.9 °F 69.8 °F 70% 29.80 in - East 5.8 mph - N/A   Clear